Hattiesburg, MS

4:10 AM CST on December 06, 2016 (GMT -0600)
Chain Municipal

Weather History for KHBG - October, 2012

Change the Weather History Date:

Friday, October 26, 2012

  Actual Average Record
Temperature  
Mean Temperature 70 °F 64 °F  
Max Temperature 85 °F 77 °F 91 °F (2010)
Min Temperature 54 °F 51 °F 31 °F (1955)
Degree Days  
Heating Degree Days 0 4  
Month to date heating degree days 19 52  
Since 1 July heating degree days 19 54  
Cooling Degree Days 5 3  
Month to date cooling degree days 98 122  
Year to date cooling degree days 2707 2349  
Growing Degree Days 22 (Base 50)    
Moisture  
Dew Point 60 °F    
Average Humidity 72    
Maximum Humidity 100    
Minimum Humidity 44    
Precipitation  
Precipitation 0.00 in 0.12 in 3.68 in (2015)
Month to date precipitation 0.10 3.21  
Year to date precipitation 59.63 49.45  
Sea Level Pressure  
Sea Level Pressure 29.98 in    
Wind  
Wind Speed 5 mph (NNW)    
Max Wind Speed 18 mph    
Max Gust Speed 26 mph    
Visibility 5 miles    
Events Fog    
T = Trace of Precipitation, MM = Missing Value Source: NWS Daily Summary

Daily Weather History Graph

Daily Weather History Graph

Search for Another Location

Airport or City:

Trip Planner

Search our weather history database for the weather conditions in past years. The results will help you decide how hot, cold, wet, or windy it might be!

Date:

Astronomy

Oct. 26, 2012 Rise Set
Actual Time 7:08 AM CDT 6:13 PM CDT
Civil Twilight 6:43 AM CDT 6:37 PM CDT
Nautical Twilight 6:14 AM CDT 7:06 PM CDT
Astronomical Twilight 5:46 AM CDT 7:34 PM CDT
Moon 4:21 PM CDT (10/26) 4:14 AM CDT (10/26)
Length of Visible Light 11h 54m
Length of Day
11h 04m
Waxing Gibbous, 91% of the Moon is Illuminated
Oct 26
Waxing Gibbous
Oct 29
Full
Nov 6
Last Quarter
Nov 13
New
Nov 20
First Quarter

Hourly Weather History & Observations

Time (CDT) Temp. Heat Index Dew Point Humidity Pressure Visibility Wind Dir Wind Speed Gust Speed Precip Events Conditions
12:53 AM 62.1 °F - 60.1 °F 93% 29.96 in 8.0 mi Calm Calm - N/A   Clear
1:53 AM 61.0 °F - 57.9 °F 90% 29.96 in 10.0 mi Calm Calm - N/A   Clear
2:32 AM 60.8 °F - 57.2 °F 88% 29.95 in 7.0 mi Calm Calm - N/A   Scattered Clouds
2:41 AM 60.8 °F - 57.2 °F 88% 29.95 in 8.0 mi Calm Calm - N/A   Mostly Cloudy
2:53 AM 59.0 °F - 55.9 °F 90% 29.94 in 10.0 mi Calm Calm - N/A   Overcast
3:25 AM 59.0 °F - 57.2 °F 94% 29.96 in 1.5 mi Calm Calm - N/A   Overcast
3:34 AM 60.8 °F - 59.0 °F 94% 29.96 in 0.5 mi Calm Calm - N/A Fog Fog
3:53 AM 61.0 °F - 59.0 °F 93% 29.96 in 1.0 mi Calm Calm - N/A   Overcast
3:59 AM 60.8 °F - 57.2 °F 88% 29.96 in 3.0 mi ESE 3.5 mph - N/A   Overcast
4:13 AM 60.8 °F - 59.0 °F 94% 29.96 in 1.8 mi Calm Calm - N/A   Overcast
4:25 AM 60.8 °F - 59.0 °F 94% 29.97 in 0.5 mi Calm Calm - N/A Fog Fog
4:36 AM 60.8 °F - 59.0 °F 94% 29.96 in 0.2 mi Calm Calm - N/A Fog Fog
4:53 AM 61.0 °F - 59.0 °F 93% 29.95 in 0.2 mi Calm Calm - N/A Fog Fog
5:32 AM 60.8 °F - 60.8 °F 100% 29.97 in 1.0 mi Calm Calm - N/A   Mist
5:41 AM 60.8 °F - 60.8 °F 100% 29.97 in 0.2 mi Calm Calm - N/A Fog Fog
5:53 AM 62.1 °F - 61.0 °F 96% 29.96 in 0.2 mi NW 3.5 mph - N/A Fog Fog
6:53 AM 62.1 °F - 61.0 °F 96% 29.99 in 0.5 mi Calm Calm - 0.01 in Fog Fog
7:53 AM 63.0 °F - 62.1 °F 97% 30.00 in 0.2 mi Calm Calm - N/A Fog Fog
8:53 AM 64.0 °F - 63.0 °F 96% 30.03 in 0.2 mi NNW 3.5 mph - N/A Fog Fog
9:06 AM 64.4 °F - 62.6 °F 94% 30.03 in 0.5 mi Calm Calm - N/A Fog Fog
9:23 AM 64.4 °F - 62.6 °F 94% 30.04 in 1.2 mi NNW 3.5 mph - N/A   Overcast
9:53 AM 66.0 °F - 64.0 °F 93% 30.03 in 2.5 mi North 5.8 mph - N/A   Overcast
10:24 AM 69.8 °F - 66.2 °F 88% 30.02 in 4.0 mi WNW 3.5 mph - N/A   Overcast
10:53 AM 73.9 °F - 66.0 °F 76% 30.01 in 10.0 mi Calm Calm - N/A   Scattered Clouds
11:53 AM 77.0 °F - 66.0 °F 69% 30.00 in 10.0 mi Calm Calm - N/A   Clear
12:53 PM 81.0 °F 82.5 °F 64.0 °F 56% 29.98 in 10.0 mi Variable 4.6 mph - N/A   Mostly Cloudy
1:53 PM 82.0 °F 83.1 °F 63.0 °F 52% 29.96 in 10.0 mi NNW 3.5 mph - N/A   Mostly Cloudy
2:53 PM 84.0 °F 84.4 °F 61.0 °F 46% 29.94 in 10.0 mi Variable 4.6 mph - N/A   Clear
3:53 PM 82.9 °F 83.2 °F 60.1 °F 46% 29.93 in 10.0 mi North 5.8 mph - N/A   Partly Cloudy
4:53 PM 82.0 °F 82.7 °F 61.0 °F 49% 29.91 in 10.0 mi North 5.8 mph - N/A   Clear
5:53 PM 78.1 °F - 61.0 °F 56% 29.92 in 10.0 mi NNW 5.8 mph - N/A   Clear
6:53 PM 73.9 °F - 64.0 °F 71% 29.95 in 10.0 mi NNW 6.9 mph - N/A   Mostly Cloudy
7:53 PM 70.0 °F - 60.1 °F 71% 29.98 in 10.0 mi North 10.4 mph - N/A   Clear
8:53 PM 64.0 °F - 57.0 °F 78% 30.01 in 10.0 mi NW 13.8 mph 20.7 mph N/A   Clear
9:53 PM 60.1 °F - 54.0 °F 80% 30.02 in 10.0 mi NNW 11.5 mph - N/A   Mostly Cloudy
11:53 PM 55.0 °F - 48.0 °F 77% 30.04 in 10.0 mi NNW 12.7 mph 26.5 mph N/A   Overcast